| time (UTC) | temp F | wind direction | speed knots | gust knots | rain 1hr in | rain 24hr in | rain mn in | humidity % | barometer mb |
| 20260504202338 | 70 | 245 | 7.0 | 7.8 | 0.00 | 0.00 | 0.00 | 1 | 1003.1 |
| 20260504201834 | 70 | 260 | 4.3 | 5.2 | 0.00 | 0.00 | 0.00 | 1 | 1003.2 |
| 20260504201331 | 69 | 260 | 2.6 | 2.6 | 0.00 | 0.00 | 0.00 | 1 | 1003.2 |
| 20260504200829 | 70 | 235 | 2.6 | 4.3 | 0.00 | 0.00 | 0.00 | 1 | 1003.2 |
| 20260504200325 | 70 | 140 | 6.1 | 7.8 | 0.00 | 0.00 | 0.00 | 1 | 1003.4 |
| 20260504195821 | 71 | 251 | 4.3 | 6.1 | 0.00 | 0.00 | 0.00 | 1 | 1003.5 |
| 20260504195317 | 70 | 285 | 6.1 | 9.6 | 0.00 | 0.00 | 0.00 | 1 | 1003.5 |
| 20260504194814 | 72 | 304 | 5.2 | 7.8 | 0.00 | 0.00 | 0.00 | 1 | 1003.6 |
| 20260504194310 | 72 | 225 | 5.2 | 6.1 | 0.00 | 0.00 | 0.00 | 1 | 1003.6 |
| 20260504193807 | 71 | 268 | 7.0 | 7.0 | 0.00 | 0.00 | 0.00 | 1 | 1003.6 |
| 20260504193304 | 71 | 196 | 6.1 | 7.0 | 0.00 | 0.00 | 0.00 | 1 | 1003.6 |
| 20260504192803 | 71 | 207 | 3.5 | 6.1 | 0.00 | 0.00 | 0.00 | 1 | 1003.8 |
| 20260504192300 | 71 | 215 | 6.1 | 9.6 | 0.00 | 0.00 | 0.00 | 1 | 1003.8 |
| 20260504191759 | 71 | 217 | 6.1 | 7.8 | 0.00 | 0.00 | 0.00 | 1 | 1003.6 |
| 20260504191255 | 71 | 199 | 9.6 | 13.9 | 0.00 | 0.00 | 0.00 | 1 | 1003.8 |
| 20260504190751 | 71 | 304 | 1.7 | 6.1 | 0.00 | 0.00 | 0.00 | 1 | 1003.8 |
| 20260504190247 | 71 | 224 | 1.7 | 4.3 | 0.00 | 0.00 | 0.00 | 1 | 1004.2 |
| 20260504185744 | 70 | 232 | 7.0 | 7.8 | 0.00 | 0.00 | 0.00 | 1 | 1004.2 |
| 20260504185241 | 70 | 225 | 3.5 | 6.1 | 0.00 | 0.00 | 0.00 | 1 | 1004.2 |
| 20260504184737 | 69 | 197 | 10.4 | 13.0 | 0.00 | 0.00 | 0.00 | 1 | 1004.4 |
| 20260504184233 | 71 | 253 | 7.8 | 8.7 | 0.00 | 0.00 | 0.00 | 1 | 1004.4 |
| 20260504183729 | 70 | 235 | 5.2 | 7.0 | 0.00 | 0.00 | 0.00 | 1 | 1004.3 |
| 20260504183226 | 70 | 240 | 6.1 | 7.8 | 0.00 | 0.00 | 0.00 | 1 | 1004.6 |
| 20260504182724 | 70 | 295 | 5.2 | 7.0 | 0.00 | 0.00 | 0.00 | 1 | 1004.4 |
| 20260504182221 | 69 | 227 | 4.3 | 4.3 | 0.00 | 0.00 | 0.00 | 1 | 1004.5 |
| 20260504181719 | 70 | 251 | 7.8 | 9.6 | 0.00 | 0.00 | 0.00 | 1 | 1004.5 |
| 20260504181216 | 70 | 224 | 7.0 | 8.7 | 0.00 | 0.00 | 0.00 | 1 | 1004.5 |
| 20260504180715 | 70 | 352 | 5.2 | 7.8 | 0.00 | 0.00 | 0.00 | 1 | 1004.7 |
| 20260504180213 | 68 | 283 | 4.3 | 6.1 | 0.00 | 0.00 | 0.00 | 1 | 1004.5 |
| 20260504175710 | 69 | 224 | 11.3 | 13.9 | 0.00 | 0.00 | 0.00 | 1 | 1004.6 |
| 20260504175207 | 69 | 195 | 5.2 | 7.0 | 0.00 | 0.00 | 0.00 | 1 | 1005.0 |
| 20260504174705 | 68 | 204 | 3.5 | 5.2 | 0.00 | 0.00 | 0.00 | 1 | 1004.9 |
| 20260504174203 | 68 | 296 | 5.2 | 6.1 | 0.00 | 0.00 | 0.00 | 1 | 1005.0 |
| 20260504173658 | 68 | 276 | 5.2 | 7.0 | 0.00 | 0.00 | 0.00 | 1 | 1005.0 |
| 20260504173156 | 68 | 203 | 8.7 | 11.3 | 0.00 | 0.00 | 0.00 | 1 | 1005.1 |
| 20260504172652 | 68 | 211 | 8.7 | 8.7 | 0.00 | 0.00 | 0.00 | 1 | 1005.3 |
| 20260504172149 | 68 | 217 | 7.8 | 9.6 | 0.00 | 0.00 | 0.00 | 1 | 1005.2 |
| 20260504171645 | 66 | 214 | 5.2 | 7.0 | 0.00 | 0.00 | 0.00 | 1 | 1005.1 |
| 20260504171143 | 68 | 267 | 6.1 | 7.8 | 0.00 | 0.00 | 0.00 | 1 | 1005.3 |
| 20260504170639 | 67 | 280 | 5.2 | 6.1 | 0.00 | 0.00 | 0.00 | 1 | 1005.3 |
| 20260504170137 | 67 | 298 | 6.1 | 7.0 | 0.00 | 0.00 | 0.00 | 1 | 1005.2 |
| 20260504151022 | 61 | 290 | 4.3 | 5.2 | 0.00 | 0.00 | 0.00 | 1 | 1006.4 |
| 20260504150520 | 61 | 272 | 2.6 | 2.6 | 0.00 | 0.00 | 0.00 | 1 | 1006.2 |
| 20260504140945 | 58 | 216 | 6.1 | 7.0 | 0.00 | 0.00 | 0.00 | 1 | 1006.7 |
| 20260504140442 | 58 | 246 | 7.0 | 8.7 | 0.00 | 0.00 | 0.00 | 1 | 1006.8 |
| 20260504130406 | 55 | 204 | 3.5 | 5.2 | 0.00 | 0.00 | 0.00 | 1 | 1007.1 |
| 20260504110253 | 48 | 217 | 3.5 | 5.2 | 0.00 | 0.00 | 0.00 | 1 | 1006.9 |
| 20260504100211 | 48 | 180 | 6.1 | 7.0 | 0.00 | 0.00 | 0.00 | 1 | 1007.0 |
| 20260504090134 | 49 | 271 | 3.5 | 5.2 | 0.00 | 0.00 | 0.00 | 1 | 1007.3 |
| 20260504081604 | 49 | 204 | 1.7 | 2.6 | 0.00 | 0.00 | 0.00 | 1 | 1007.6 |
| 20260504081100 | 48 | 216 | 3.5 | 5.2 | 0.00 | 0.00 | 0.00 | 1 | 1007.8 |
| 20260504080557 | 48 | 222 | 4.3 | 4.3 | 0.00 | 0.00 | 0.00 | 1 | 1007.9 |
| 20260504050410 | 48 | 228 | 2.6 | 2.6 | 0.00 | 0.00 | 0.00 | 1 | 1009.6 |
| 20260504045907 | 48 | 239 | 2.6 | 2.6 | 0.00 | 0.00 | 0.00 | 1 | 1009.7 |
| 20260504045402 | 48 | 261 | 2.6 | 2.6 | 0.00 | 0.00 | 0.00 | 1 | 1009.5 |
| 20260504044859 | 48 | 220 | 3.5 | 4.3 | 0.00 | 0.00 | 0.00 | 1 | 1009.6 |
| 20260504044356 | 48 | 236 | 0.9 | 1.7 | 0.00 | 0.00 | 0.00 | 1 | 1009.6 |
| 20260504043854 | 48 | 242 | 2.6 | 4.3 | 0.00 | 0.00 | 0.00 | 1 | 1009.9 |
| 20260504043350 | 48 | 234 | 2.6 | 2.6 | 0.00 | 0.00 | 0.00 | 1 | 1009.8 |
| 20260504042848 | 48 | 206 | 2.6 | 4.3 | 0.00 | 0.00 | 0.00 | 1 | 1009.7 |
| 20260504042344 | 48 | 249 | 2.6 | 2.6 | 0.00 | 0.00 | 0.00 | 1 | 1009.7 |
| 20260504041840 | 48 | 227 | 2.6 | 2.6 | 0.00 | 0.00 | 0.00 | 1 | 1009.9 |
| 20260504041337 | 48 | 228 | 2.6 | 2.6 | 0.00 | 0.00 | 0.00 | 1 | 1009.7 |
| 20260504040833 | 48 | 225 | 1.7 | 1.7 | 0.00 | 0.00 | 0.00 | 1 | 1009.7 |
| 20260504040331 | 48 | 240 | 1.7 | 1.7 | 0.00 | 0.00 | 0.00 | 1 | 1009.8 |
| 20260504035826 | 48 | 236 | 3.5 | 4.3 | 0.00 | 0.00 | 0.00 | 1 | 1009.7 |
| 20260504035324 | 48 | 228 | 2.6 | 4.3 | 0.00 | 0.00 | 0.00 | 1 | 1009.9 |
| 20260504034821 | 48 | 243 | 2.6 | 2.6 | 0.00 | 0.00 | 0.00 | 1 | 1009.8 |
| 20260504034319 | 49 | 255 | 3.5 | 4.3 | 0.00 | 0.00 | 0.00 | 1 | 1009.7 |
| 20260504033816 | 49 | 215 | 3.5 | 4.3 | 0.00 | 0.00 | 0.00 | 1 | 1009.7 |
| 20260504033314 | 49 | 224 | 4.3 | 5.2 | 0.00 | 0.00 | 0.00 | 1 | 1009.8 |
| 20260504032810 | 49 | 230 | 3.5 | 4.3 | 0.00 | 0.00 | 0.00 | 1 | 1009.9 |
| 20260504032307 | 49 | 223 | 2.6 | 2.6 | 0.00 | 0.00 | 0.00 | 1 | 1010.0 |
| 20260504031804 | 49 | 227 | 4.3 | 6.1 | 0.00 | 0.00 | 0.00 | 1 | 1009.9 |
| 20260504031301 | 49 | 227 | 2.6 | 2.6 | 0.00 | 0.00 | 0.00 | 1 | 1010.1 |
| 20260504030757 | 49 | 217 | 3.5 | 4.3 | 0.00 | 0.00 | 0.00 | 1 | 1010.0 |
| 20260504030255 | 49 | 237 | 2.6 | 4.3 | 0.00 | 0.00 | 0.00 | 1 | 1009.9 |
| 20260504025751 | 50 | 226 | 2.6 | 2.6 | 0.00 | 0.00 | 0.00 | 1 | 1010.0 |
| 20260504025248 | 50 | 226 | 1.7 | 1.7 | 0.00 | 0.00 | 0.00 | 1 | 1010.0 |
| 20260504024744 | 50 | 235 | 2.6 | 2.6 | 0.00 | 0.00 | 0.00 | 1 | 1009.9 |
| 20260504024241 | 50 | 221 | 2.6 | 2.6 | 0.00 | 0.00 | 0.00 | 1 | 1010.2 |
| 20260504023738 | 50 | 209 | 3.5 | 4.3 | 0.00 | 0.00 | 0.00 | 1 | 1010.1 |
| 20260504023234 | 50 | 226 | 4.3 | 5.2 | 0.00 | 0.00 | 0.00 | 1 | 1010.0 |
| 20260504022730 | 50 | 239 | 2.6 | 2.6 | 0.00 | 0.00 | 0.00 | 1 | 1010.0 |
| 20260504022226 | 50 | 239 | 4.3 | 5.2 | 0.00 | 0.00 | 0.00 | 1 | 1010.1 |
| 20260504021724 | 50 | 214 | 2.6 | 2.6 | 0.00 | 0.00 | 0.00 | 1 | 1010.0 |
| 20260504021221 | 51 | 221 | 1.7 | 1.7 | 0.00 | 0.00 | 0.00 | 1 | 1010.1 |
| 20260504020718 | 51 | 237 | 2.6 | 2.6 | 0.00 | 0.00 | 0.00 | 1 | 1010.0 |
| 20260504020214 | 51 | 232 | 2.6 | 2.6 | 0.00 | 0.00 | 0.00 | 1 | 1010.1 |
| 20260504015711 | 51 | 229 | 4.3 | 5.2 | 0.00 | 0.00 | 0.00 | 1 | 1010.0 |
| 20260504015207 | 51 | 203 | 2.6 | 2.6 | 0.00 | 0.00 | 0.00 | 1 | 1010.0 |
| 20260504014703 | 51 | 213 | 2.6 | 2.6 | 0.00 | 0.00 | 0.00 | 1 | 1010.0 |
| 20260504014200 | 51 | 241 | 2.6 | 2.6 | 0.00 | 0.00 | 0.00 | 1 | 1009.9 |
| 20260504013658 | 51 | 204 | 1.7 | 2.6 | 0.00 | 0.00 | 0.00 | 1 | 1010.0 |
| 20260504013154 | 52 | 265 | 0.9 | 1.7 | 0.00 | 0.00 | 0.00 | 1 | 1009.8 |
| 20260504012651 | 52 | 192 | 3.5 | 4.3 | 0.00 | 0.00 | 0.00 | 1 | 1009.8 |
| 20260504012149 | 52 | 259 | 0.9 | 1.7 | 0.00 | 0.00 | 0.00 | 1 | 1009.6 |
| 20260504011646 | 52 | 230 | 2.6 | 4.3 | 0.00 | 0.00 | 0.00 | 1 | 1009.8 |
| 20260504011143 | 52 | 223 | 1.7 | 1.7 | 0.00 | 0.00 | 0.00 | 1 | 1009.6 |
| 20260504010638 | 52 | 242 | 2.6 | 2.6 | 0.00 | 0.00 | 0.00 | 1 | 1009.9 |
| 20260504010134 | 52 | 7 | 1.7 | 1.7 | 0.00 | 0.00 | 0.00 | 1 | 1009.9 |
| 20260504005632 | 53 | 215 | 1.7 | 1.7 | 0.00 | 0.00 | 0.00 | 1 | 1009.7 |
| 20260504005128 | 53 | 351 | 1.7 | 2.6 | 0.00 | 0.00 | 0.00 | 1 | 1009.6 |
| 20260504004627 | 53 | 226 | 1.7 | 1.7 | 0.00 | 0.00 | 0.00 | 1 | 1009.7 |
| 20260504004123 | 53 | 215 | 1.7 | 1.7 | 0.00 | 0.00 | 0.00 | 1 | 1009.7 |
| 20260504003619 | 53 | 259 | 2.6 | 2.6 | 0.00 | 0.00 | 0.00 | 1 | 1009.7 |
| 20260504003116 | 53 | 222 | 2.6 | 2.6 | 0.00 | 0.00 | 0.00 | 1 | 1009.7 |
| 20260504002613 | 53 | 219 | 2.6 | 2.6 | 0.00 | 0.00 | 0.00 | 1 | 1010.0 |
| 20260504002111 | 54 | 262 | 1.7 | 1.7 | 0.00 | 0.00 | 0.00 | 1 | 1009.7 |
| 20260504001608 | 54 | 264 | 2.6 | 2.6 | 0.00 | 0.00 | 0.00 | 1 | 1009.7 |
| 20260504001104 | 54 | 210 | 4.3 | 6.1 | 0.00 | 0.00 | 0.00 | 1 | 1009.7 |
| 20260504000601 | 55 | 276 | 4.3 | 5.2 | 0.00 | 0.00 | 0.00 | 1 | 1009.5 |
| 20260504000059 | 55 | 235 | 3.5 | 5.2 | 0.00 | 0.00 | 0.00 | 1 | 1009.4 |
| 20260503235557 | 55 | 0 | 3.5 | 5.2 | 0.00 | 0.00 | 0.00 | 1 | 1009.7 |
| 20260503235053 | 55 | 205 | 1.7 | 1.7 | 0.00 | 0.00 | 0.00 | 1 | 1009.7 |
| 20260503234551 | 55 | 256 | 1.7 | 2.6 | 0.00 | 0.00 | 0.00 | 1 | 1009.8 |
| 20260503234049 | 55 | 209 | 5.2 | 11.3 | 0.00 | 0.00 | 0.00 | 1 | 1009.5 |
| 20260503233545 | 55 | 246 | 3.5 | 4.3 | 0.00 | 0.00 | 0.00 | 1 | 1009.6 |
| 20260503233041 | 56 | 256 | 1.7 | 1.7 | 0.00 | 0.00 | 0.00 | 1 | 1009.7 |
| 20260503232539 | 56 | 278 | 2.6 | 2.6 | 0.00 | 0.00 | 0.00 | 1 | 1009.8 |
| 20260503232036 | 57 | 265 | 2.6 | 2.6 | 0.00 | 0.00 | 0.00 | 1 | 1009.8 |
| 20260503231534 | 56 | 135 | 3.5 | 7.8 | 0.00 | 0.00 | 0.00 | 1 | 1009.5 |
| 20260503231030 | 56 | 255 | 2.6 | 2.6 | 0.00 | 0.00 | 0.00 | 1 | 1009.8 |
| 20260503230527 | 56 | 292 | 4.3 | 7.0 | 0.00 | 0.00 | 0.00 | 1 | 1009.9 |
| 20260503230025 | 56 | 262 | 3.5 | 4.3 | 0.00 | 0.00 | 0.00 | 1 | 1009.9 |
| 20260503225521 | 56 | 216 | 1.7 | 2.6 | 0.00 | 0.00 | 0.00 | 1 | 1009.7 |
| 20260503225016 | 56 | 284 | 2.6 | 2.6 | 0.00 | 0.00 | 0.00 | 1 | 1009.8 |
| 20260503224514 | 56 | 288 | 3.5 | 5.2 | 0.00 | 0.00 | 0.00 | 1 | 1009.8 |
| 20260503224012 | 56 | 271 | 0.9 | 1.7 | 0.00 | 0.00 | 0.00 | 1 | 1009.8 |
| 20260503223509 | 56 | 253 | 4.3 | 5.2 | 0.00 | 0.00 | 0.00 | 1 | 1009.7 |
| 20260503223005 | 56 | 293 | 5.2 | 7.0 | 0.00 | 0.00 | 0.00 | 1 | 1009.9 |
| 20260503222503 | 56 | 273 | 3.5 | 4.3 | 0.00 | 0.00 | 0.00 | 1 | 1010.0 |
| 20260503222001 | 57 | 251 | 2.6 | 4.3 | 0.00 | 0.00 | 0.00 | 1 | 1010.1 |
| 20260503221459 | 56 | 299 | 3.5 | 4.3 | 0.00 | 0.00 | 0.00 | 1 | 1009.9 |
| 20260503220956 | 57 | 240 | 2.6 | 2.6 | 0.00 | 0.00 | 0.00 | 1 | 1009.8 |
| 20260503220452 | 57 | 305 | 3.5 | 4.3 | 0.00 | 0.00 | 0.00 | 1 | 1009.8 |
| 20260503215949 | 57 | 278 | 6.1 | 7.0 | 0.00 | 0.00 | 0.00 | 1 | 1009.6 |
| 20260503215446 | 57 | 290 | 5.2 | 7.0 | 0.00 | 0.00 | 0.00 | 1 | 1009.6 |
| 20260503214943 | 57 | 290 | 3.5 | 4.3 | 0.00 | 0.00 | 0.00 | 1 | 1009.7 |
| 20260503214441 | 57 | 289 | 3.5 | 4.3 | 0.00 | 0.00 | 0.00 | 1 | 1009.7 |
| 20260503213938 | 58 | 243 | 4.3 | 5.2 | 0.00 | 0.00 | 0.00 | 1 | 1009.9 |
| 20260503213437 | 59 | 204 | 5.2 | 6.1 | 0.00 | 0.00 | 0.00 | 1 | 1009.7 |
| 20260503212932 | 59 | 240 | 5.2 | 7.0 | 0.00 | 0.00 | 0.00 | 1 | 1009.5 |
| 20260503212430 | 57 | 289 | 4.3 | 6.1 | 0.00 | 0.00 | 0.00 | 1 | 1009.4 |
| 20260503211927 | 57 | 232 | 2.6 | 4.3 | 0.00 | 0.00 | 0.00 | 1 | 1009.4 |
| 20260503211424 | 59 | 219 | 3.5 | 5.2 | 0.00 | 0.00 | 0.00 | 1 | 1009.5 |
| 20260503210919 | 57 | 269 | 2.6 | 6.1 | 0.00 | 0.00 | 0.00 | 1 | 1009.5 |
| 20260503210416 | 58 | 284 | 6.1 | 7.0 | 0.00 | 0.00 | 0.00 | 1 | 1009.4 |
| 20260503205911 | 59 | 279 | 6.1 | 7.8 | 0.00 | 0.00 | 0.00 | 1 | 1009.5 |
| 20260503205409 | 59 | 224 | 3.5 | 5.2 | 0.00 | 0.00 | 0.00 | 1 | 1009.4 |
| 20260503204904 | 59 | 218 | 3.5 | 4.3 | 0.00 | 0.00 | 0.00 | 1 | 1009.5 |
| 20260503204402 | 57 | 264 | 4.3 | 5.2 | 0.00 | 0.00 | 0.00 | 1 | 1009.6 |
| 20260503203859 | 59 | 292 | 8.7 | 11.3 | 0.00 | 0.00 | 0.00 | 1 | 1009.9 |
| 20260503203356 | 58 | 205 | 3.5 | 4.3 | 0.00 | 0.00 | 0.00 | 1 | 1010.0 |
| 20260503202853 | 58 | 286 | 5.2 | 6.1 | 0.00 | 0.00 | 0.00 | 1 | 1009.9 |